Location: Cuiabá
(15.6014°S, 56.0979°W)
Time: 17:20:50
(UTC-04:00)

Hubble Space Telescope - Pass Details

Date: 07 December 2022
Orbit: 529 x 532 km, 28.5° (Epoch: 04 February)

Event Time Altitude Azimuth Distance (km) Brightness Sun altitude
Rises 19:38:22 0° 234° (SW) 2,677 5.9 -20.4°
Reaches altitude 10° 19:41:37 10° 207° (SSW) 1,787 4.3 -21.0°
Maximum altitude 19:43:46 14° 176° (S) 1,560 3.4 -21.5°
Drops below altitude 10° 19:45:56 10° 144° (SE) 1,787 3.4 -21.9°
Enters shadow 19:46:10 - 141° (SE) 1,833 3.4 -22.0°
